Regional Weather Roundup
Issued by NWS

Home | Current Version | Previous Version | Text Only | Print | Product List | Glossary On
Versions: 1 2 3 4 5 6 7 8 9 10 11 12 13 14 15 16 17 18 19 20 21 22 23 24 25 26 27 28 29 30 31 32 33 34 35 36 37 38 39 40 41 42 43 44 45 46 47 48 49 50
000
ASUS43 KMKX 270100
RWRWI

WISCONSIN REGIONAL WEATHER ROUNDUP
NATIONAL WEATHER SERVICE MILWAUKEE/SULLIVAN WI
800 PM CDT MON JUN 26 2017

NOTE: "FAIR" INDICATES FEW OR NO CLOUDS BELOW 12,000 FEET WITH NO
SIGNIFICANT WEATHER AND/OR OBSTRUCTIONS TO VISIBILITY.

WIZ001-002-006>008-014>016-023>028-270200-
NORTHWEST WISCONSIN

CITY           SKY/WX    TMP DP  RH WIND       PRES   REMARKS
SUPERIOR ARPT  NOT AVBL
ASHLAND        MOCLDY    60  48  64 W9        30.04F
HAYWARD        MOCLDY    62  47  57 CALM      30.07S
SIREN          CLEAR     62  49  63 CALM      30.09S
CUMBERLAND     MOCLDY    55  50  82 SW3       30.10S
RICE LAKE      PTCLDY    56  50  81 W3        30.11F
CHETEK         MOCLDY    53  52  97 CALM      30.10F
LADYSMITH      CLEAR     60  49  65 W6        30.09S
EAU CLAIRE     NOT AVBL
MENOMONIE      CLEAR     63  49  59 NW5       30.10R
NEW RICHMOND   CLEAR     65  43  44 CALM      30.11S
OSCEOLA        CLEAR     68  41  37 N8        30.12S
$$

WIZ003>005-009-010-017-018-270200-
NORTH CENTRAL WISCONSIN

CITY           SKY/WX    TMP DP  RH WIND       PRES   REMARKS
MANITOWISH WTR CLEAR     59  46  63 W9G17     30.04S
ARBOR VITAE    PTCLDY    62  47  57 NW8       30.04R
WOODRUFF       PTCLDY    62  47  57 NW8       30.04R
RHINELANDER    MOCLDY    59  45  59 W5        30.04S
EAGLE RIVER    PTCLDY    60  41  50 NW5       30.03S
LAND O LAKES   CLEAR     59  43  55 NW5       30.04S
PHILLIPS       PTCLDY    53  51  93 CALM      30.07F
TOMAHAWK       NOT AVBL
MEDFORD        CLEAR     59  46  62 NW10G17   30.07S THUNDER
MERRILL        PTCLDY    58  47  64 N6        30.06R
$$

WIZ029-030-035-036-043>047-270200-
CENTRAL WISCONSIN

CITY           SKY/WX    TMP DP  RH WIND       PRES   REMARKS
WAUSAU         CLEAR     60  45  57 W10       30.03S
MOSINEE        PTCLDY    61  46  59 NW8       30.06S
MARSHFIELD     CLEAR     59  47  64 NW9       30.07R
STEVENS POINT  PTCLDY    60  43  53 NW3       30.06S
WAUPACA        CLEAR     64  46  50 CALM      30.05S
WAUTOMA        CLEAR     63  46  54 NW6       30.06S
WISC RAPIDS    MOCLDY    64  47  53 N8G17     30.07S
CAMP DOUGLAS   NOT AVBL
$$

WIZ011>013-019>022-031-037>040-048>050-270200-
NORTHEAST WISCONSIN

CITY           SKY/WX    TMP DP  RH WIND       PRES   REMARKS
ANTIGO         CLEAR     60  46  59 N3        30.05S
SHAWANO        CLEAR     64  47  54 NE5       30.04S
OCONTO         CLEAR     59  51  74 CALM      30.03R
STURGEON BAY     N/A     57  52  83 W5          N/A
GREEN BAY      CLEAR     59  54  83 N3        30.04S
MANITOWOC      MOCLDY    57  50  77 NW9       30.04R
APPLETON       PTCLDY    57  46  67 NE5       30.03S
CLINTONVILLE   CLEAR     61  43  51 NW3       30.04S
OSHKOSH        PTCLDY    61  48  62 N10       30.05R
$$

WIZ032>034-041-042-053>061-270200-
SOUTHWEST WISCONSIN

CITY           SKY/WX    TMP DP  RH WIND       PRES   REMARKS
LA CROSSE      PTCLDY    70  46  42 N10       30.08S
SPARTA         CLOUDY    64  46  51 NW9       30.09R
VIROQUA        PTCLDY    64  45  51 NW10      30.09S
BOSCOBEL       CLEAR     67  43  41 N7        30.09R
PRAIRIE DU CHI CLEAR     67  38  34 NW8       30.09R
PLATTEVILLE    CLEAR     66  43  43 N7        30.09S
$$

WIZ056-057-062-063-064-067-068-270200-
SOUTH CENTRAL WISCONSIN

CITY           SKY/WX    TMP DP  RH WIND       PRES   REMARKS
REEDSBURG      CLEAR     63  46  54 N5        30.07S
BARABOO/DELLS  CLEAR     62  45  52 NW5       30.08R
LONE ROCK      CLEAR     65  48  54 CALM      30.08R
MINERAL POINT  CLEAR     64  43  45 NW9       30.09S
MADISON        PTCLDY    62  45  53 NW8       30.07R
MIDDLETON      CLEAR     64  44  48 N10       30.08S
WATERTOWN      NOT AVBL
MONROE         CLEAR     63  41  45 NW9       30.08R
JANESVILLE     NOT AVBL
$$

WIZ051-052-058>065-066-070>072-270200-
SOUTHEAST WISCONSIN

CITY           SKY/WX    TMP DP  RH WIND       PRES   REMARKS
MILWAUKEE      MOCLDY    63  46  54 NW13G18   30.04R
WAUKESHA       MOCLDY    59  45  58 NW9       30.06R
MILWAUKEE/TIMM CLOUDY    61  45  55 NW9       30.06R
RACINE         PTCLDY    62  43  49 NW9       30.06R
KENOSHA        CLEAR     62  45  53 NW7       30.05R
FOND DU LAC    CLOUDY    62  47  57 N8        30.05S
SHEBOYGAN      PTCLDY    57  53  86 NW10      30.04R
WEST BEND      PTCLDY    55  50  82 NW6       30.05R
JUNEAU         CLOUDY    61  45  55 N6        30.07R
$$

LSZ147-162-270200-
LAKE SUPERIOR

STATION/POSITION TIME  TEMP    WIND        PRES    WAVE
                       AIR SEA DIR/SP/G            HT/PER
                 (UTC) (F)     (DEG/KT/KT) (MB)    (FT/S)
W MID LAKE BUOY  2350   45 39  230/ 10/ 12 1016.4F   1/ 4
DEVILS ISLAND    0000   57     240/ 15/ 17 1016.6F
PORT WING        2340   59     240/  8/ 11 1017.9S
SAXON HARBOR     0040   64     260/  3/  7 1016.6S
$$

LMZ867-665-643>646-270200-
LAKE MICHIGAN

STATION/POSITION TIME  TEMP    WIND        PRES    WAVE
                       AIR SEA DIR/SP/G            HT/PER
                 (UTC) (F)     (DEG/KT/KT) (MB)    (FT/S)
CHAMBERS ISLAND  0040   61     280/  4/  8 1015.9S
S GREEN BAY BUOY 0030   60     280/  8/ 10 1016.5R
N MID LAKE BUOY  2350   56 56  320/  8/ 10 1016.1R   2/ 4
NORTHPORT PIER   0040   62     290/  3/  5 1015.9R
KEWAUNEE LAKESHO 0030   58     330/  5/  8 1016.2R
SHEBOYGAN LAKESH 0000   59     310/ 14/ 19 1016.4F
PORT WASHINGTON  0040   61     300/  8/ 13 1017.9R
ATWATER BUOY     2309   61 56  290/ 12/ 16 1016.8R
MILWAUKEE LAKESH 0030   62     320/  9/ 12   N/A
S MID LAKE BUOY  2350   60 61  340/ 14/ 16 1016.5S   3/ 5
KENOSHA   LAKESH 0000   63     320/ 11/ 15 1016.9
$$

TC  - TEMPERATURE IN CELSIUS
VSB - VISIBILITY IN STATUTE MILES
WCI - WIND CHILL INDEX
HX  - HEAT INDEX





USA.gov is the U.S. government's official web portal to all federal, state and local government web resources and services.